This demonstration page uses our WeatherBlox Daily Observations layout. Learn more.

Left ArrowRight Arrow

Hourly Observations for June 5, 2019

Temp ( °F °C ) Dew Point ( °F °C ) Humidity (%) Winds ( mph kmh ) Pressure ( in mb ) Visibility ( mi km ) Precip ( " mm )
6:15 am 06:15 Mostly Cloudy 70 21 63 17 78 78 S 8 13 29.83 1010 10 16 N/A
6:46 am 06:46 Mostly Cloudy 68 20 63 17 83 83 SSW 7 11 29.83 1010 10 16 N/A
7:48 am 07:48 Mostly Cloudy 72 22 63 17 73 73 SSW 14 22 29.84 1010 10 16 N/A
8:47 am 08:47 Mostly Cloudy 72 22 63 17 73 73 SW 13 20 29.83 1010 10 16 N/A
9:16 am 09:16 Mostly Cloudy with Light Rain 72 22 64 18 78 78 SW 15 24 29.81 1009 7 11 N/A
9:48 am 09:48 Mostly Cloudy 70 21 64 18 83 83 SW 12 19 29.81 1010 10 16 N/A
10:26 am 10:26 Cloudy 72 22 64 18 78 78 SW 13 20 29.81 1009 10 16 N/A
10:46 am 10:46 Cloudy 70 21 64 18 83 83 SW 9 15 29.81 1010 10 16 N/A
11:20 am 11:20 Cloudy 72 22 64 18 78 78 SSW 8 13 29.80 1009 10 16 N/A
11:51 am 11:51 Cloudy 72 22 66 19 83 83 SW 8 13 29.80 1009 10 16 N/A
12:47 pm 12:47 Cloudy 73 23 66 19 78 78 SSW 8 13 29.80 1009 10 16 N/A
1:47 pm 13:47 Mostly Cloudy 77 25 68 20 74 74 SSW 8 13 29.77 1008 10 16 N/A
2:45 pm 14:45 Partly Cloudy 81 27 68 20 66 66 WSW 12 19 29.77 1008 10 16 N/A
3:45 pm 15:45 Partly Cloudy 82 28 68 20 62 62 WSW 14 22 29.75 1007 10 16 N/A
4:45 pm 16:45 Mostly Cloudy 84 29 68 20 58 58 SW 16 26 29.71 1006 10 16 N/A
5:45 pm 17:45 Cloudy with Rain 68 20 61 16 78 78 WSW 16 26 29.84 1011 2 3 N/A
6:25 pm 18:25 Cloudy 66 19 63 17 88 88 ENE 6 9 29.78 1008 10 16 N/A
6:45 pm 18:45 Cloudy 66 19 63 17 88 88 ENE 7 11 29.78 1008 10 16 N/A
7:45 pm 19:45 Cloudy 66 19 63 17 88 88 NE 6 9 29.75 1007 10 16 N/A
8:45 pm 20:45 Cloudy 64 18 61 16 88 88 S 9 15 29.78 1008 10 16 N/A
9:45 pm 21:45 Mostly Clear 63 17 57 14 83 83 S 3 6 29.77 1008 10 16 N/A

Powered by AerisWeather